EW8354 Weather Reports


Display with metric or nautical units.
time (UTC)temp
F
wind
direction
speed
MPH
gust
MPH
rain 1hr
in
rain 24hr
in
rain mn
in
humidity
%
barometer
mb
20260503224527 60 192 3.0 7.0 0.00 0.00 0.00 77 1013.6
20260503223026 60 198 2.0 6.0 0.00 0.00 0.00 77 1013.6
20260503221524 60 215 2.0 6.0 0.00 0.00 0.00 77 1013.5
20260503220024 60 209 2.0 5.0 0.00 0.00 0.00 76 1013.6
20260503214523 61 244 2.0 7.0 0.00 0.00 0.00 75 1013.6
20260503213023 60 225 2.0 8.0 0.00 0.00 0.00 75 1013.5
20260503211522 60 240 3.0 6.0 0.00 0.00 0.00 76 1013.5
20260503210022 60 252 3.0 7.0 0.00 0.00 0.00 76 1013.4
20260503204522 61 229 3.0 6.0 0.00 0.00 0.00 75 1013.2
20260503203041 61 276 3.0 7.0 0.00 0.00 0.00 75 1013.0
20260503201521 61 275 5.0 9.0 0.00 0.00 0.00 73 1012.9
20260503200020 62 257 5.0 11.0 0.00 0.00 0.00 72 1012.7
20260503194534 62 241 6.0 13.0 0.00 0.00 0.00 70 1012.7
20260503193019 63 267 5.0 10.0 0.00 0.00 0.00 67 1012.4
20260503191519 64 253 6.0 11.0 0.00 0.00 0.00 65 1012.3
20260503190028 65 256 7.0 12.0 0.00 0.00 0.00 63 1012.2
20260503184523 65 215 5.0 15.0 0.00 0.00 0.00 61 1012.0
20260503183018 66 261 9.0 17.0 0.00 0.00 0.00 58 1012.0
20260503181517 67 265 8.0 17.0 0.00 0.00 0.00 54 1012.0
20260503180017 68 246 7.0 17.0 0.00 0.00 0.00 56 1011.9
20260503174516 69 233 9.0 16.0 0.00 0.00 0.00 54 1011.9
20260503173016 70 255 7.0 17.0 0.00 0.00 0.00 53 1011.8
20260503171515 71 214 6.0 19.0 0.00 0.00 0.00 53 1011.9
20260503081533 65 244 1.0 4.0 0.00 0.00 0.00 83 1013.8
20260503071507 61 271 1.0 4.0 0.00 0.00 0.00 88 1013.6
20260503060118 61 290 1.0 4.0 0.00 0.00 0.00 88 1013.4
20260503054618 61 293 2.0 4.0 0.00 0.00 0.00 88 1013.4
20260503053056 61 292 2.0 5.0 0.00 0.00 0.00 88 1013.3
20260503051554 61 255 0.0 3.0 0.00 0.00 0.00 88 1013.1
20260503050054 61 255 1.0 4.0 0.00 0.00 0.00 88 1013.1
20260503044554 61 251 1.0 5.0 0.00 0.00 0.00 87 1013.1
20260503043053 61 240 3.0 6.0 0.00 0.00 0.00 87 1013.2
20260503041552 61 257 1.0 5.0 0.00 0.00 0.00 87 1013.1
20260503040050 60 265 0.0 0.0 0.00 0.00 0.00 86 1013.2
20260503034550 61 265 0.0 0.0 0.00 0.00 0.00 86 1013.3
20260503033049 61 265 0.0 0.0 0.00 0.00 0.00 86 1013.4
20260503031548 61 265 0.0 2.0 0.00 0.00 0.00 86 1013.4
20260503030049 61 265 0.0 3.0 0.00 0.00 0.00 85 1013.5
20260503024546 61 250 1.0 4.0 0.00 0.00 0.00 85 1013.5
20260503023047 61 237 0.0 3.0 0.00 0.00 0.00 85 1013.5
20260503021545 61 239 0.0 4.0 0.00 0.00 0.00 84 1013.5
20260503020044 61 234 2.0 6.0 0.00 0.00 0.00 84 1013.6
20260503014542 61 248 3.0 6.0 0.00 0.00 0.00 84 1013.9
20260503013041 61 248 3.0 6.0 0.00 0.00 0.00 83 1014.0
20260503011538 61 239 3.0 7.0 0.00 0.00 0.00 83 1014.3
20260503010038 61 235 3.0 7.0 0.00 0.00 0.00 82 1014.4
20260503004534 61 244 2.0 7.0 0.00 0.00 0.00 82 1014.7
20260503003036 61 246 4.0 7.0 0.00 0.00 0.00 82 1014.7
20260503001532 61 240 1.0 4.0 0.00 0.00 0.00 81 1014.8
20260503000030 61 221 2.0 4.0 0.00 0.00 0.00 81 1014.9
20260502234546 61 242 1.0 6.0 0.00 0.00 0.00 81 1014.9
20260502233030 61 244 2.0 5.0 0.00 0.00 0.00 81 1015.0
20260502231529 61 244 1.0 4.0 0.00 0.00 0.00 80 1015.1
20260502230028 61 230 1.0 4.0 0.00 0.00 0.00 80 1015.1